User: anonymous   Login
Location: Unspecified
(0.0000°N, 0.0000°E)
Time: 03:27:45
(UTC+00:00)
Language:

NOSS 2-2 (C) - Orbit

View from above orbital plane
View from above orbital plane
View from above satellite
View from above satellite

Ground track
Ground track

The orbit data is extracted from the following two-line orbital elements,

1 21799U 91076C   17329.22760397 0.00000050  00000-0  14791-4 0    03
2 21799  63.3490  44.0101 0766000  26.8103 333.1897 13.41137186    03
Epoch (UTC): 25 November 2017 05:27:44
Eccentricity: 0.0766000
inclination: 63.3490°
perigee height: 532 km
apogee height: 1678 km
right ascension of ascending node: 44.0101°
argument of perigee: 26.8103°
revolutions per day: 13.41137186
mean anomaly at epoch: 333.1897°
orbit number at epoch: 0

The dashed part of the orbit path shows where the satellite is in the earth's shadow,  

DLR